Other Public Products
Issued by NWS Grand Forks, ND

Home | Current Version | Previous Version | Graphics & Text | Print | Product List | Glossary On
Versions: 1 2 3 4 5 6 7 8 9 10 11 12 13 14 15 16 17 18 19 20 21 22 23 24 25 26 27 28 29 30 31 32 33 34 35 36 37 38 39 40 41 42 43 44 45 46 47 48 49 50
000
FPUS83 KFGF 221710
OPUFGF
PRAIRIE TO PINES WEATHER ROUNDUP
NATIONAL WEATHER SERVICE EASTERN NORTH DAKOTA/GRAND FORKS ND
1200 PM CDT THU JUN 22 2017

 **SATELLITE DATA USED TO AUGMENT SKY COVER AT AUTOMATED STATIONS**
 *****  WEATHER ACROSS EASTERN NORTH DAKOTA  *****

CITY           SKY/WX    TMP DP  RH WIND       PRES   REMARKS
GRAND FORKS    FAIR      74  53  48 W15G21    29.68F
GRAND FORKS AF FAIR      73  51  46 NW10G20   29.69F
GRAND CITY NWS NOT AVBL
BUXTON         NOT AVBL
DEVILS LAKE    FAIR      69  43  38 W24G30    29.73S
FARGO          FAIR      76  45  33 NW17G25   29.73R
WAHPETON ARPT  FAIR      72  45  37 NW10      29.76S
$$

 *****  WEATHER ACROSS CENTRAL AND WESTERN NORTH DAKOTA  *****

CITY           SKY/WX    TMP DP  RH WIND       PRES   REMARKS
JAMESTOWN      FAIR      73  47  39 W18G26    29.76S
BISMARCK       FAIR      74  41  30 W22G29    29.84R
MINOT          FAIR      70  33  25 W30G41    29.77F
MINOT AFB      FAIR      68  37  32 W21G35    29.75F
GARRISON         N/A     67  37  33 NW24G36   29.81S
WILLISTON      FAIR      70  38  31 W22G29    29.86S
DICKINSON      FAIR      69  33  26 W17G24    29.88S
HETTINGER      FAIR      72  36  26 NW17      29.92S
$$

 *****  OTHER OBSERVATIONS NORTHEAST NORTH DAKOTA  *****

CITY           SKY/WX    TMP DP  RH WIND       PRES   REMARKS
WALHALLA       NOT AVBL
LANGDON        FAIR      70  46  43 W24       29.69S
CAVALIER       FAIR      72  48  43 W10G22    29.66S
GRAFTON        FAIR      73  46  38 W18G25    29.68F
CANDO          NOT AVBL
FORT TOTTEN      N/A     71  49  46 NW7       29.95S
ROLLA            N/A     64  37  36 W29G40    29.69F
RUGBY          NOT AVBL
 ***** THE ABOVE OBSERVATIONS ARE NON NWS ARE NOT QUALITY
        CONTROLLED AND MAY MIS-REPORT RAIN FOR SNOW...
$$

 *****  OTHER OBSERVATIONS SOUTHEAST NORTH DAKOTA *****

CITY           SKY/WX    TMP DP  RH WIND       PRES   REMARKS
COOPERSTOWN    FAIR      72  48  43 W21       29.74F
VALLEY CITY    FAIR      72  50  46 W17G25    29.77R
OAKES          NOT AVBL
GWINNER        MOSUNNY   72  48  43 NW15      29.78R
SHEYENNE NWR     N/A     73  47  39 N7        29.95S
BUFFALO        NOT AVBL
WYNDMERE       NOT AVBL
 ***** THE ABOVE OBSERVATIONS ARE NON NWS ARE NOT QUALITY
       CONTROLLED AND MAY MIS-REPORT RAIN FOR SNOW...
$$

  *****  WEATHER ACROSS NORTHERN MINNESOTA  *****

CITY           SKY/WX    TMP DP  RH WIND       PRES   REMARKS
FLAG ISLAND    FAIR      66  45  45 SW10      29.62F
WARROAD        FAIR      66  48  52 W10       29.66F
ROSEAU         FAIR      68  50  52 W8        29.66F
HALLOCK        FAIR      72  48  43 W10       29.65F
THF RVR FALLS  FAIR      68  49  50 W12       29.70F
HALSTAD        NOT AVBL
FOSSTON        FAIR      68  50  52 W10       29.72S
BAUDETTE       FAIR      69  49  48 W12G17    29.66F
WASKISH        CLOUDY    66  52  59 W9        29.69S
CROOKSTON      FAIR      72  52  49 W16       29.69F
$$
  *****  WEATHER ACROSS CENTRAL AND WEST MINNESOTA  *****

CITY           SKY/WX    TMP DP  RH WIND       PRES   REMARKS
BEMIDJI        FAIR      69  47  44 W12G17    29.72R
PARK RAPIDS    FAIR      74  43  32 NW8       29.72R
WADENA         FAIR      68  54  60 CALM      29.74R
DETROIT LAKES  FAIR      72  45  37 NW13G21   29.75R
MOORHEAD       FAIR      73  48  40 NW13G20   29.73S
FERGUS FALLS   FAIR      70  54  56 NW8       29.73S
ELBOW LAKE     FAIR      69  58  69 CALM      29.76R
MORRIS MN      FAIR      63  57  82 S5        29.74F
STAPLES        FAIR      68  50  52 CALM      29.74S
WHEATON        FAIR      70  54  56 NW6       29.78S
$$
  *****  WEATHER ELSEWHERE ACROSS MINNESOTA  *****

CITY           SKY/WX    TMP DP  RH WIND       PRES   REMARKS
DULUTH         FAIR      69  52  54 W7        29.69F
INTRNTL FALLS  FAIR      69  46  43 W8        29.66R
ELY            FAIR      70  50  49 W10G16    29.67R
CLOQUET        FAIR      70  45  40 W6        29.70F
BRAINERD       FAIR      69  56  62 SW6       29.74R
HIBBING        FAIR      69  50  50 W7        29.69S
ALEXANDRIA     FAIR      68  52  56 SE3       29.77R
SAINT CLOUD    PTSUNNY   60  59  96 CALM      29.73F
MINNEAPOLIS    CLOUDY    69  64  84 VRB5      29.73F
$$

  *****  WEATHER ACROSS SOUTH DAKOTA  *****

CITY           SKY/WX    TMP DP  RH WIND       PRES   REMARKS
SIOUX FALLS    PTSUNNY   74  64  71 E9        29.73R
BROOKINGS      CLOUDY    66  62  87 N7        29.78R
WATERTOWN      LGT RAIN  58  54  86 NE5       29.77S
HURON          CLOUDY    62  59  90 N9        29.81R
SISSETON         N/A     73  51  46 N12       29.76S
ABERDEEN       FAIR      75  46  35 N13       29.79R
MITCHELL       CLOUDY    67  61  81 NW9       29.79R
PIERRE         FAIR      71  49  45 N17       29.83R
MOBRIDGE       FAIR      76  40  27 N12       29.81F
RAPID CITY     PTSUNNY   65  45  48 N20G26    29.96S
$$

  *****  SOME WEATHER IN NEARBY STATES *****

CITY           SKY/WX    TMP DP  RH WIND       PRES   REMARKS
GLASGOW MT     FAIR      68  34  28 NW22G31   29.91F
GREAT FALLS MT FAIR      62  32  32 NW17G26   30.08R
CHEYENNE WY    FAIR      70  43  37 N23G35    30.03R
SCOTTSBLUFF NE FAIR      78  50  37 N14       29.93R
OMAHA NE       FAIR      84  65  52 S15       29.66R
DES MOINES IA  CLOUDY    81  64  57 S9        29.72R THUNDER
DAVENPORT IA   FAIR      81  68  64 S5        29.81R
CHICAGO IL     PTSUNNY   86  68  54 SW17G24   29.82S
EAU CLAIRE WI  LGT RAIN  69  68  96 SW3       29.75R FOG
LA CROSSE WI   RAIN      71  66  84 SW15G25   29.78R
$$

  *****  SOME NATIONAL WEATHER *****

CITY           SKY/WX    TMP DP  RH WIND       PRES   REMARKS
LA GUARDIA NY  FAIR      82  56  40 S16       29.97F
RALEIGH NC     CLOUDY    82  74  76 W9        30.11S
ATLANTA GA     PTSUNNY   79  75  87 SE7       30.09F
NEW ORLEANS LA PTSUNNY   86  76  71 S24G33    29.81S HX  96
OKLAHOMA CITY  FAIR      83  65  54 SW6       29.76F
ALBUQUERQUE NM FAIR      87  45  23 W7        30.02F
SALT LAKE CITY FAIR      80  36  20 N16       30.05S
LOS ANGELES CA CLOUDY    66  62  87 VRB6      29.83R FOG
BOISE ID       FAIR      71  37  28 W18G26    30.12F
SEATTLE WA     FAIR      65  49  56 NE9       30.32R
$$

*** WEATHER ACROSS MANITOBA...SASKATCHEWAN AND ONTARIO ***
                ***ONTARIO***

CITY           SKY/WX    TMP DP  RH WIND       PRES   REMARKS
GERALDTON      CLOUDY    63  57  82 W6        29.56F
THUNDER BAY    PTSUNNY   72  57  60 W8        29.59R
SIOUX LOOKOUT  MOSUNNY   70  57  64 SW8       29.58F
TORONTO        PTSUNNY   64  61  88 S9        29.91F
BIG TROUT LK   LGT RAIN  55  54  94 SE8       29.54S
PICKLE LAKE    PTSUNNY   63  55  77 W8        29.54F
DRYDEN         SUNNY     70  50  49 W15G21    29.59F
KENORA         MOSUNNY   68  48  49 SW12G21   29.61F
$$
                *** MANITOBA***

CITY           SKY/WX    TMP DP  RH WIND       PRES   REMARKS
BRANDON        PTSUNNY   63  43  48 W31G44    29.60S
DAUPHIN        CLOUDY    57  46  67 W25G35    29.50S
ISLAND LAKE    MOSUNNY   66  50  55 E5        29.43F
PILOT MOUND      N/A     64  39  39 W17G29      N/A
THE PAS        MOSUNNY   61  52  72 N8        29.45R
THOMPSON       PTSUNNY   61  55  82 NE13      29.45R
WINNIPEG       PTSUNNY   68  43  40 W22G33    29.57F
LYNN LAKE      PTSUNNY   70  48  46 N12       29.52S
CHURCHILL      MOSUNNY   45  37  76 N20       29.58R
GILLAM         PTSUNNY   64  52  63 E8G17     29.47R
$$
                ***SASKATCHEWAN***

CITY           SKY/WX    TMP DP  RH WIND       PRES   REMARKS
ESTEVAN        PTSUNNY   64  37  36 W35G51    29.74S
KINDERSLEY     LGT RAIN  50  48  93 NW23G37   29.86R
LLOYDMINSTER   CLOUDY    48  43  81 NW23G33   29.93R
PRINCE ALBERT  CLOUDY    57  54  88 N15G21    29.64R
REGINA         LGT RAIN  50  46  87 W28G37    29.74R
YORKTON        LGT RAIN  52  48  87 W26G32    29.57R F


USA.gov is the U.S. government's official web portal to all federal, state and local government web resources and services.